Regional Weather Roundup
Issued by NWS

Home | Current Version | Previous Version | Text Only | Print | Product List | Glossary Off
Versions: 1 2 3 4 5 6 7 8 9 10 11 12 13 14 15 16 17 18 19 20 21 22 23 24 25 26 27 28 29 30 31 32 33 34 35 36 37 38 39 40 41 42 43 44 45 46 47 48 49 50

000
ASUS43 KMPX 240910
RWRMN
WEATHER ROUNDUP FOR MINNESOTA
NATIONAL WEATHER SERVICE TWIN CITIES/CHANHASSEN MN
400 AM CDT FRI OCT 24 2014


NOTE: "FAIR" INDICATES FEW OR NO CLOUDS BELOW 12,000 FEET WITH NO
SIGNIFICANT WEATHER AND/OR OBSTRUCTIONS TO VISIBILITY. N/A MEANS
CURRENT SKY AND/OR WEATHER CONDITIONS ARE NOT AVAILABLE.

MNZ060>063-068>070-241000-
   Twin Cities Metro

CITY           SKY/WX    TMP DP  RH WIND       PRES   REMARKS
TWIN CITIES    PTCLDY    47  45  93 E7        29.94F
ST PAUL        FOG       47  47 100 SE8       29.96F VSB 1/2
CRYSTAL        PTCLDY    49  46  90 SE3       29.93S
BLAINE         MOCLDY    48  48 100 SE6       29.94S
LAKEVILLE      PTCLDY    46  45  93 CALM      29.94F
EDEN PRAIRIE   PTCLDY    51  44  77 S9        29.92F
SOUTH ST PAUL  FOG       47  46  95 CALM      29.95F VSB 1/2
LAKE ELMO      MOCLDY    46  46 100 S5        29.97S FOG
$$
MNZ001>005-007-008-013>017-022>024-027-028-241000-
   Northwest Minnesota

CITY           SKY/WX    TMP DP  RH WIND       PRES   REMARKS
BEMIDJI        MOCLDY    54  43  66 S7        29.80F
HALLOCK        CLOUDY    46  39  76 S7        29.71S
ROSEAU         CLOUDY    52  43  71 SW6       29.72S
WARROAD        CLOUDY    52  43  71 SW5       29.73S
THIEF RVR FALL MOCLDY    48  39  71 S8        29.76F
CROOKSTON      MOCLDY    46  41  81 S6        29.77S
FOSSTON        MOCLDY    50  43  76 S13       29.79F
DETROIT LAKES  CLOUDY    52  45  76 SE5       29.84S
MOORHEAD       CLOUDY    48  45  87 S12       29.81F
PARK RAPIDS    MOCLDY    49  41  74 SE6       29.84F
MAHNOMEN       FAIR      50  43  78 S12       29.80F
$$
MNZ006-009>011-018-025>026-241000-
   North Central Minnesota

CITY           SKY/WX    TMP DP  RH WIND       PRES   REMARKS
BAUDETTE       CLOUDY    52  41  66 S6        29.74F
FLAG ISLAND    CLOUDY    50  45  81 SE8       29.70F
INTL FALLS     CLOUDY    52  40  63 VRB3      29.78F
WASKISH        CLOUDY    55  43  62 CALM      29.77F
BIG FORK       CLOUDY    52  41  66 S8        29.83F
LONGVILLE      MOCLDY    48  43  81 CALM      29.85F
GRAND RAPIDS   CLOUDY    48  41  76 S9        29.86F
CRANE LAKE     CLOUDY    48  45  87 S5        29.84S
ORR            CLOUDY    48  41  76 S6        29.81S
COOK           CLOUDY    52  45  76 S7        29.85S
WALKER         FAIR      52  41  66 SW9       29.83F
$$
MNZ012-019>021-037-241000-
   Northeast Minnesota

CITY           SKY/WX    TMP DP  RH WIND       PRES   REMARKS
DULUTH         CLOUDY    48  45  89 SW12      29.90F FOG
ELY            CLOUDY    48  45  87 SW5       29.86F
HIBBING        CLOUDY    37  35  92 CALM      29.87F
EVELETH        CLOUDY    36  36 100 CALM      29.89F FOG
DULUTH HARBOR  CLOUDY    46  45  93 CALM      29.92F FOG
TWO HARBORS    CLOUDY    50  39  66 SW7       29.90S HAZE
SILVER BAY     FOG       48  46  93 S3        29.89F VSB 1/4
GRAND MARAIS     N/A     48  47  96 CALM      29.92S
G MARAIS ARPRT FOG       45  43  93 S3        29.91S VSB 1/4
$$
MNZ029>031-032-039>041-046>048-054>057-064-241000-
   West Central Minnesota

CITY           SKY/WX    TMP DP  RH WIND       PRES   REMARKS
FERGUS FALLS   CLOUDY    46  39  76 S6        29.85S
WHEATON        CLOUDY    43  39  87 CALM      29.85S
MORRIS         MOCLDY    45  43  93 SE7       29.84S
ALEXANDRIA     MOCLDY    49  43  80 S6        29.87F
ELBOW LAKE     FAIR      46  42  86 SE7       29.84F
WADENA         MOCLDY    46  41  81 S3        29.84F
GLENWOOD       MOCLDY    48  43  81 SE3       29.88S
APPLETON       CLOUDY    45  41  87 E3        29.85S
BENSON         MOCLDY    46  43  87 SE5       29.86F
ORTONVILLE     CLOUDY    46  41  81 SE3       29.83F
MADISON        CLOUDY    48  45  87 CALM      29.84S
WILLMAR        FAIR      48  43  81 SE8       29.88F
$$
MNZ033>034-036-042>043-049>051-058-059-241000-
   Central Minnesota

CITY           SKY/WX    TMP DP  RH WIND       PRES   REMARKS
ST CLOUD       CLOUDY    50  41  71 SE7       29.89F
SAUK CENTRE    FAIR      47  42  81 CALM      29.87F
PAYNESVILLE    MOCLDY    47  41  81 E5        29.88F
AITKIN         MOCLDY    52  45  76 S5        29.86F
PINE RIVER     MOCLDY    45  39  81 CALM      29.89F
BRAINERD       PTCLDY    47  40  76 S5        29.87F
STAPLES        MOCLDY    48  41  76 CALM      29.86F
LONG PRAIRIE   FAIR      46  41  81 S3        29.88F
LITTLE FALLS   MOCLDY    46  39  76 SE3       29.88F
LITCHFIELD     MOCLDY    54  43  66 S5        29.89F
BUFFALO        MOCLDY    48  40  73 CALM      29.93F
MAPLE LAKE     MOCLDY    47  42  81 SE5       29.91F
$$
MNZ037-044-045-052-053-241000-
   East Central Minnesota

CITY           SKY/WX    TMP DP  RH WIND       PRES   REMARKS
PRINCETON      MOCLDY    46  45  93 E3        29.91F
MORA           FOG       43  43 100 CALM      29.93F VSB 1/4
CAMBRIDGE      CLOUDY    50  43  76 SE5       29.90F HAZE
RUSH CITY      CLOUDY    47  46  97 SE3       29.93F
MOOSE LAKE     CLOUDY    46  46 100 S3        29.90F FOG
HINCKLEY       FOG       46  46 100 SE3       29.93F VSB 1/4
CLOQUET        CLOUDY    48  46  93 S9        29.91F FOG
MCGREGOR       CLOUDY    48  45  87 S6        29.89F
$$
MNZ071>073-080-081-089-090-097-098-241000-
   Southwest Minnesota

CITY           SKY/WX    TMP DP  RH WIND       PRES   REMARKS
MONTEVIDEO     MOCLDY    50  45  81 S6        29.85F
GRANITE FALLS  MOCLDY    49  45  85 CALM      29.86F
CANBY          CLOUDY    55  48  77 SW10      29.85S
MARSHALL       CLOUDY    54  45  71 S13       29.84F
REDWOOD FALLS  MOCLDY    48  43  82 SE8       29.86F
OLIVIA         MOCLDY    50  43  76 SE8       29.86F
PIPESTONE      MOCLDY    48  45  87 S6        29.87F
WINDOM         MOCLDY    52  45  76 S6        29.89F
WORTHINGTON    MOCLDY    52  45  76 S13       29.90F
JACKSON        MOCLDY    52  43  71 S8        29.91F
TRACY          CLOUDY    52  45  76 S12       29.86F
SLAYTON        MOCLDY    48  46  90 SE9       29.88F
$$
MNZ065>067-074>077-082>085-091>093-241000-
   South Central Minnesota

CITY           SKY/WX    TMP DP  RH WIND       PRES   REMARKS
MANKATO        PTCLDY    48  39  71 S10       29.93F
NEW ULM        PTCLDY    48  43  81 S12       29.89F
ST JAMES       PTCLDY    52  41  66 S9        29.92F
FAIRMONT       PTCLDY    45  37  76 S8        29.93F
GLENCOE        PTCLDY    49  42  78 SE5       29.90F
FARIBAULT      PTCLDY    46  45  93 S5        29.96F
OWATONNA       PTCLDY    50  45  81 SE10      29.96F
WASECA         CLEAR     45  37  76 SE3       29.96F
ALBERT LEA     CLEAR     45  45 100 SE6       29.97F FOG
$$
MNZ078>079-086>088-094>096-241000-
   Southeast Minnesota

CITY           SKY/WX    TMP DP  RH WIND       PRES   REMARKS
ROCHESTER      FOG       46  45  96 S7        30.00F VSB 1/4
RED WING       MOCLDY    46  46 100 E5        29.97F FOG
STANTON        PTCLDY    49  45  85 S5        29.95F
DODGE CENTER   PTCLDY    45  45 100 S8        29.98F FOG
WINONA         CLOUDY    52  50  93 CALM      30.02S
AUSTIN         MIX PCPN  45  45 100 CALM      29.99S VSB 1/4
PRESTON        FOG       48  47  98 S8        30.01S VSB 1/4
$$
ABBREVIATIONS USED IN REMARKS
   TC - TEMPERATURES IN CELSIUS
  WCI - WIND CHILL INDEX
   HX - HEAT INDEX
  VSB - VISIBILITY
$$



USA.gov is the U.S. government's official web portal to all federal, state and local government web resources and services.